FALCON 9 DEB (48488 NORAD) Tracking and Keplerian Element Data

This shows tracking and keplerian element data for the satellite.

Feedback or suggestion? Click here.




ElementValue
Catalog48488
NameFALCON 9 DEB
Epoch Orbit526
Epoch Day161.88146892
Epoch Year2021
RAAN53.6112
Inclination53.0414
Eccentricity0.0011549
Argument of Perigee268.4795
Mean Anonmoly91.4931
Mean Motion16.45747238
Decay Rate0.07505228
L11 48488U 21040BN 21161.88146892 .07505228 12515-4 16240-3 0 9999
L22 48488 53.0414 53.6112 0011549 268.4795 91.4931 16.45747238 5267

Live tracking and technical data element details for FALCON 9 DEB (NORAD 48488). FALCON 9 DEB can be tracked NOW for your location showing map with azimuth and elevation plus other details from your city location.

Track the satellite on the map from your city or location and see movement details for azimuth, elevation, latitude, longitude, range, height, and movement on the map or in text.







IsCatalogInMostPopularTable: catalog: 48488, numindb: 24
Update: records affected: 1



GetName: 48488 FALCON 9 DEB

Hit Count: updated at: Tue, 03 Aug 2021 22:50:53 GMT